Location: Dentlein
(49.1477°N, 10.4231°E)
Time: 08:36:46
(UTC+00:00)

Cosmos 1709 Rocket - Pass Details

Date: 23 May 2024
Orbit: 948 x 1001 km, 82.9° (Epoch: 15 June)

Event Time Altitude Azimuth Distance (km) Brightness Sun altitude
Exits shadow 01:49:42 16° 206° (SSW) 2,360 5.4 -12.2°
Maximum altitude 01:54:51 60° 283° (WNW) 1,135 4.2 -11.7°
Drops below altitude 10° 02:01:10 10° 4° (N) 2,781 7.3 -11.0°
Sets 02:03:46 0° 8° (N) 3,737 8.1 -10.8°
